     2              OBSERVATION DATA    GPS                 RINEX VERSION / TYPE
teqc 1998Mar9 19980311 23:28:34UTC                          PGM / RUN BY / DATE
                                                            COMMENT
Original Marker Name: unknown                               COMMENT
Campaign Name: Cholame 1989                                 COMMENT
4-Character Station Name: GOUD                              COMMENT
6-Character Antenna Code: TI4100                            COMMENT
Vertical Measurement Point: PAE                             COMMENT
Vertical Offset to Rinex Ref. Point: 0.0000                 COMMENT
Radial Measurement Point: PAE                               COMMENT
Radial Offset to Rinex Ref. Point: 0.0842                   COMMENT
Antenna Height from Field Measurement: 1.4470 m             COMMENT
Original XYZ: 0.0000 0.0000 0.0000                          COMMENT
New XYZ position is based on association with SCEC monument COMMENT
E1F1C2K8+0011. Position of that monument is believed to be  COMMENT
valid to within 1 m horizontally; vertical accuracy         COMMENT
should be no worse than 3-times this value.                 COMMENT
                                                            COMMENT
Revised Rinex header created by UCSD GPS archive for        COMMENT
GSAC on 26-May-1999 (1999:146) 23:26:36 GMT                 COMMENT
For assistance contact dagnew@ucsd.edu or hjohnson@ucsd.edu COMMENT
                                                            COMMENT
GOUD                                                        MARKER NAME
unknown UCLA                                                OBSERVER / AGENCY
UN04 TI 4100 2.1                                            REC # / TYPE / VERS
UN04 TI 4100                                                ANT # / TYPE
 -2583737.0000 -4517626.0000  3675590.0000                  APPROX POSITION XYZ
        1.4446        0.0000        0.0000                  ANTENNA: DELTA H/E/N
     1     1     0                                          WAVELENGTH FACT L1/2
     4    P1    P2    L1    L2                              # / TYPES OF OBSERV
     0                                                      INTERVAL
  1989    11    15    10     1   29.000000                  TIME OF FIRST OBS
  1989    11    15    16    48   59.000000                  TIME OF LAST OBS
     0                                                      # OF SATELLITES
                                                            END OF HEADER
 89 11 15 10  1 29.0800000  0  3G 2G 6G11
  22089969.008    22089968.199     2965245.317 9   -720216.114 9
  21152620.290    21152621.069     1747073.259 9  -3446914.307 8
  22940651.787    22940653.717      969667.717 9  -3917244.198 8
 89 11 15 10  1 59.0800000  0  3G 2G 6G11
  22104598.368    22104600.557     3042129.092 8   -660306.710 8
  21142028.390    21142029.042     1691412.640 9  -3490286.243 9
  22919876.662    22919878.545      860492.248 9  -4002315.972 8
 89 11 15 10  2 29.0800000  0  3G 2G 6G11
  22119244.867    22119246.607     3119094.567 8   -600333.658 9
  21131455.207    21131455.817     1635853.758 9  -3533578.872 9
  22899131.755    22899134.290      751483.201 9  -4087258.092 8
 89 11 15 10  2 59.0800000  0  3G 2G 6G11
  22133905.981    22133907.212     3196140.235 9   -540298.088 8
  21120902.751    21120902.815     1580398.031 9  -3576791.099 8
  22878421.329    22878422.949      642643.767 9  -4172068.028 8
 89 11 15 10  3 29.0800000  0  3G 2G 6G11
  22148582.894    22148583.900     3273264.349 9   -480201.395 8
  21110369.458    21110370.284     1525046.081 8  -3619922.468 9
  22857741.069    22857744.909      533975.788 9  -4256744.382 8
 89 11 15 10  3 59.0800000  0  3G 2G 6G11
  22163273.836    22163275.130     3350466.351 8   -420044.047 8
  21099855.577    21099857.115     1469799.299 9  -3662971.895 9
  22837095.534    22837099.876      425482.622 8  -4341284.516 8
 89 11 15 10  4 29.0800000  0  4G 2G 6G11G 9
  22177978.696    22177981.555     3427745.804 9   -359826.320 8
  21089363.156    21089364.519     1414659.204 9  -3705938.208 7
  22816484.373    22816486.747      317167.922 8  -4425685.582 9
                                  -1021959.487 6   1368000.000 1
 89 11 15 10  4 59.0800000  0  4G 2G 6G11G 9
  22192698.914    22192700.673     3505101.270 9   -299549.384 9
  21078890.356    21078892.047     1359627.455 9  -3748820.113 8
  22795907.478    22795911.136      209034.546 9  -4509945.339 9
  23925663.939    23925666.381    -1107338.962 6   1316153.349 8
 89 11 15 10  5 29.0800000  0  4G 2G 6G11G 9
  22207433.867    22207435.742     3582531.389 9   -239214.279 9
  21068438.928    21068439.898     1304705.077 9  -3791616.753 8
  22775365.688    22775369.164      101085.338 9  -4594061.583 8
  23909405.168    23909409.561    -1192765.737 6   1249587.080 7
 89 11 15 10  5 59.0800000  0  4G 2G 6G11G 9
  22222182.792    22222183.880     3660035.716 8   -178821.334 9
  21058009.220    21058010.929     1249893.492 9  -3834327.047 8
  22754859.498    22754862.230       -6676.698 8  -4678031.979 9
  23893140.531    23893143.984    -1278239.561 7   1182984.162 8
 89 11 15 10  6 29.0800000  0  4G 2G 6G11G 9
  22236944.843    22236946.062     3737612.619 9   -118371.836 8
  21047600.034    21047601.614     1195193.666 8  -3876950.220 9
  22734388.173    22734391.882     -114248.896 9  -4761854.446 8
  23876868.600    23876870.860    -1363760.145 8   1116344.774 8
 89 11 15 10  6 59.0800000  0  4G 2G 6G11G 9
  22251721.331    22251722.746     3815261.334 9    -57866.403 8
  21037212.862    21037214.300     1140607.110 9  -3919485.171 8
  22713954.848    22713957.522     -221628.154 9  -4845526.559 9
  23860586.137    23860587.736    -1449326.646 8   1049669.624 8
 89 11 15 10  7 29.0800000  0  4G 2G 6G11G 9
  22266511.003    22266512.430     3892980.904 9      2694.248 9
  21026847.560    21026847.954     1086135.336 9  -3961930.671 9
  22693557.632    22693561.570     -328811.332 9  -4929045.895 9
  23844294.472    23844295.957    -1534938.253 8    982959.331 8
 89 11 15 10  7 59.0800000  0  4G 2G 6G11G 9
  22281313.094    22281314.939     3970770.201 8     63309.240 9
  21016504.037    21016504.419     1031779.627 9  -4004285.739 8
  22673200.572    22673202.837     -435795.486 9  -5012410.169 8
  23827995.525    23827996.122    -1620594.639 9    916214.128 8
 89 11 15 10  8 29.0800000  0  4G 2G 6G11G 9
  22296128.464    22296130.653     4048628.313 9    123977.869 8
  21006182.865    21006182.185      977541.442 9  -4046549.208 8
  22652880.832    22652882.717     -542577.898 9  -5095617.210 9
  23811686.723    23811688.343    -1706295.462 9    849434.295 8
 89 11 15 10  8 59.0800000  0  4G 2G 6G11G 9
  22310957.979    22310959.324     4126555.056 9    184699.988 9
  20995884.110    20995884.896      923422.147 9  -4088720.110 7
  22632599.216    22632601.802     -649155.200 9  -5178664.440 9
  23795369.095    23795371.729    -1792039.463 9    782620.794 8
 89 11 15 10  9 29.0800000  0  4G 2G 6G11G 9
  22325799.304    22325801.936     4204548.063 8    245473.724 8
  20985608.716    20985609.488      869422.608 9  -4130797.722 7
  22612357.245    22612360.274     -755525.161 9  -5261550.106 9
  23779044.634    23779046.906    -1877826.965 9    715773.384 7
 89 11 15 10  9 59.0800000  0  4G 2G 6G11G 9
  22340653.595    22340655.197     4282606.362 8    306298.340 8
  20975356.533    20975357.159      815544.274 9  -4172780.840 8
  22592156.325    22592158.953     -861684.864 9  -5344271.930 8
  23762711.664    23762713.780    -1963657.589 9    648892.369 8
 89 11 15 10 10 29.0800000  0  4G 2G 6G11G 9
  22355520.878    22355521.293     4360729.625 8    367173.580 9
  20965125.864    20965127.398      761788.927 9  -4214668.110 8
  22571995.465    22571999.096     -967630.755 9  -5426827.150 8
  23746370.344    23746372.168    -2049530.134 9    581978.682 7
 89 11 15 10 10 59.0800000  0  4G 2G 6G11G 9
  22370399.180    22370400.695     4438917.099 8    428098.852 8
  20954920.582    20954922.078      708158.072 8  -4256458.354 9
  22551875.774    22551878.800    -1073360.299 9  -5509213.799 8
  23730022.626    23730023.520    -2135443.831 9    515032.925 8
 89 11 15 10 11 29.0800000  0  4G 2G 6G11G 9
  22385289.207    22385290.922     4517167.366 8    489073.049 8
  20944739.025    20944740.459      654653.178 9  -4298150.455 9
  22531797.510    22531800.562    -1178870.050 9  -5591429.171 8
  23713665.994    23713666.575    -2221398.100 9    448055.545 8
 89 11 15 10 11 59.0800000  0  4G 2G 6G11G 9
  22400191.813    22400193.899     4595480.413 8    550096.163 8
  20934581.077    20934581.989      601276.167 9  -4339742.932 8
  22511762.685    22511765.204    -1284156.848 9  -5673470.809 8
  23697302.176    23697303.040    -2307391.599 9    381047.591 7
 89 11 15 10 12 29.0800000  0  4G 2G 6G11G 9
  22415106.456    22415107.356     4673855.269 9    611167.452 8
  20924448.438    20924449.720      548028.440 9  -4381234.646 8
  22491769.897    22491773.297    -1389217.658 9  -5755336.353 8
  23680929.948    23680930.448    -2393424.080 9    314009.255 8
 89 11 15 10 12 59.0800000  0  4G 2G 6G11G 9
  22430030.825    22430032.444     4752288.737 8    672284.375 8
  20914341.313    20914341.792      494909.592 9  -4422625.934 8
  22471821.209    22471824.260    -1494051.594 9  -5837025.101 9
  23664551.197    23664552.676    -2479496.609 8    246939.694 7
 89 11 15 10 13 29.0800000  0  4G 2G 6G11G 9
  22444968.933    22444969.993     4830780.794 9    733446.959 8
  20904257.992    20904257.865      441921.877 9  -4463915.038 8
  22451915.969    22451918.282    -1598654.776 9  -5918534.050 8
  23648164.226    23648167.343    -2565607.611 8    179840.188 7
 89 11 15 10 13 59.0800000  0  4G 2G 6G11G 9
  22459916.666    22459917.764     4909331.411 8    794655.206 8
  20894199.917    20894199.677      389067.172 9  -4505100.536 8
  22432055.212    22432057.761    -1703024.203 9  -5999860.864 9
  23631771.479    23631771.678    -2651755.999 9    112711.569 7
 89 11 15 10 14 29.0800000  0  4G 2G 6G11G 9
  22474874.947    22474875.708     4987939.420 8    855908.153 9
  20884168.333    20884168.533      336347.075 9  -4546181.135 8
  22412239.436    22412241.529    -1807156.725 9  -6081003.068 8
  23615371.214    23615371.328    -2737941.169 8     45554.272 6
 89 11 15 10 14 59.0800000  0  4G 2G 6G11G 9
  22489842.997    22489845.145     5066604.563 8    917205.641 9
  20874161.949    20874160.609      283763.453 9  -4587155.358 8
  22392469.887    22392471.044    -1911048.879 9  -6161957.975 9
  23598963.545    23598964.573    -2824161.931 7    -21630.745 7
 89 11 15 10 15 29.0800000  0  4G 2G 6G11G 9
  22504824.258    22504826.364     5145326.002 8    978547.006 8
  20864181.893    20864182.002      231318.070 9  -4628021.881 8
  22372744.943    22372747.237    -2014697.899 9  -6242723.439 8
  23582548.835    23582551.419    -2910417.335 7    -88842.748 7
 89 11 15 10 15 59.0800000  0  4G 2G 6G11G 9
  22519814.338    22519815.613     5224101.805 9   1039930.695 9
  20854228.289    20854227.768      179011.718 9  -4668780.074 9
  22353068.385    22353070.628    -2118101.583 8  -6323297.732 9
  23566128.428    23566129.890    -2996707.421 8   -156081.781 7
 89 11 15 10 16 29.0800000  0  4G 2G 6G11G 9
  22534816.379    22534817.096     5302930.962 9   1101355.977 9
  20844299.742    20844301.628      126844.862 9  -4709429.601 8
  22333437.982    22333441.155    -2221258.053 9  -6403679.373 9
  23549702.224    23549703.234    -3083032.217 7   -223347.786 7
 89 11 15 10 16 59.0800000  0  4G 2G 6G11G 9
  22549827.353    22549828.023     5381812.921 9   1162822.414 8
  20834400.538    20834400.594       74819.743 9  -4749968.692 8
  22313855.392    22313859.148    -2324163.086 9  -6483865.100 8
  23533266.833    23533268.856    -3169390.667 7   -290640.028 7
 89 11 15 10 17 29.0800000  0  4G 2G 6G11G 9
  22564847.879    22564848.137     5460746.871 9   1224329.373 8
  20824528.555    20824528.226       22938.514 9  -4790395.641 8
  22294321.388    22294324.961    -2426813.760 9  -6563852.607 8
  23516828.314    23516830.939    -3255781.307 8   -357957.332 6
 89 11 15 10 17 59.0800000  0  4G 2G 6G11G 9
  22579877.732    22579879.462     5539731.685 9   1285875.969 9
  20814682.664    20814683.522      -28797.467 9  -4830709.419 8
  22274836.894    22274839.808    -2529207.393 9  -6643639.840 9
  23500382.944    23500385.037    -3342203.595 8   -425299.341 8
 89 11 15 10 18 29.0800000  0  4G 2G 6G11G 9
  22594916.896    22594919.827     5618767.054 9   1347461.928 8
  20804866.174    20804865.495      -80386.777 9  -4870908.897 8
  22255402.690    22255404.656    -2631341.283 9  -6723224.652 8
  23483931.934    23483932.184    -3428656.664 9   -492665.300 7
 89 11 15 10 18 59.0800000  0  4G 2G 6G11G 9
  22609966.295    22609968.711     5697851.523 8   1409086.146 8
  20795076.906    20795076.863     -131828.094 9  -4910993.095 7
  22236016.335    22236018.877    -2733212.714 9  -6802604.999 8
  23467474.575    23467476.318    -3515140.410 9   -560055.239 8
 89 11 15 10 19 29.0800000  0  4G 2G 6G11G 9
  22625024.314    22625027.448     5776984.795 9   1470748.418 8
  20785316.021    20785316.880     -183119.581 9  -4950960.564 8
  22216680.651    22216684.148    -2834818.555 9  -6881778.385 8
  23451011.842    23451012.182    -3601653.294 9   -627467.821 8
 89 11 15 10 19 59.0800000  0  4G 2G 6G11G 9
  22640093.260    22640093.902     5856166.716 9   1532448.602 9
  20775584.512    20775586.014     -234259.106 9  -4990809.577 8
  22197397.999    22197400.314    -2936155.398 9  -6960742.121 8
  23434543.557    23434545.022    -3688194.550 9   -694902.540 9
 89 11 15 10 20 29.0800000  0  4G 2G 6G11G 9
  22655169.078    22655171.322     5935395.710 8   1594185.440 8
  20765881.691    20765882.256     -285245.637 9  -5030539.354 9
  22178165.235    22178167.406    -3037221.173 9  -7039494.669 8
  23418070.145    23418071.223    -3774763.372 9   -762358.699 9
 89 11 15 10 20 59.0800000  0  4G 2G 6G11G 9
  22670255.509    22670256.726     6014670.922 8   1655958.286 9
  20756209.453    20756209.878     -336077.235 9  -5070148.327 8
  22158984.868    22158987.341    -3138012.798 9  -7118033.597 9
  23401591.058    23401591.702    -3861359.130 9   -829835.878 9
 89 11 15 10 21 29.0800000  0  4G 2G 6G11G 9
  22685349.791    22685351.894     6093991.936 9   1717766.810 9
  20746566.073    20746566.661     -386752.362 9  -5109635.402 8
  22139857.226    22139860.884    -3238527.307 9  -7196356.584 8
  23385108.117    23385108.734    -3947980.575 9   -897333.044 9
 89 11 15 10 21 59.0800000  0  4G 2G 6G11G 9
  22700453.094    22700455.004     6173358.442 9   1779610.829 8
  20736953.775    20736953.989     -437268.658 9  -5148998.724 8
  22120783.694    22120787.175    -3338761.002 9  -7274460.724 8
  23368619.009    23368619.367    -4034626.594 9   -964849.370 8
 89 11 15 10 22 29.0800000  0  4G 2G 6G11G 9
  22715564.402    22715565.989     6252769.096 9   1841489.240 8
  20727370.994    20727372.081     -487624.967 9  -5188237.382 8
  22101763.158    22101766.605    -3438711.930 9  -7352344.520 9
  23352126.218    23352127.765    -4121296.583 9  -1032384.452 7
 89 11 15 10 22 59.0800000  0  4G 2G 6G11G 9
  22730684.721    22730685.916     6332223.082 9   1903401.378 9
  20717819.715    20717820.614     -537819.795 9  -5227350.211 8
  22082796.812    22082801.549    -3538377.367 9  -7430005.877 9
  23335629.612    23335629.743    -4207989.647 9  -1099937.470 9
 89 11 15 10 23 29.0800000  0  4G 2G 6G11G 9
  22745811.650    22745813.366     6411719.544 9   1965346.646 9
  20708299.688    20708299.116     -587851.921 9  -5266336.271 8
  22063886.076    22063890.406    -3637754.603 8  -7507442.696 9
  23319127.729    23319129.604    -4294705.197 9  -1167507.946 9
 89 11 15 10 23 59.0800000  0  4G 2G 6G11G 9
  22760947.755    22760948.413     6491257.623 9   2027324.371 9
  20698808.660    20698809.302     -637719.760 9  -5305194.325 7
  22045030.821    22045034.108    -3736841.168 7  -7584652.998 9
  23302621.826    23302622.645    -4381443.147 8  -1235095.947 9
 89 11 15 10 24 29.0800000  0  4G 2G 6G11G 9
  22776090.382    22776092.299     6570835.916 9   2089333.388 8
  20689351.142    20689350.368     -687421.545 9  -5343922.970 7
  22026232.346    22026234.618    -3835634.388 9  -7661634.732 9
  23286112.459    23286113.326    -4468201.931 8  -1302700.245 8
 89 11 15 10 24 59.0800000  0  4G 2G 6G11G 9
  22791241.116    22791243.399     6650454.717 9   2151373.999 8
  20679924.788    20679924.629     -736955.339 9  -5382520.726 9
  22007489.050    22007491.335    -3934131.031 9  -7738385.338 9
  23269598.372    23269601.007    -4554980.359 8  -1370319.775 8
 89 11 15 10 25 29.0800000  0  4G 2G 6G11G 9
  22806400.118    22806401.565     6730112.974 8   2213445.364 9
  20670530.402    20670532.248     -786319.358 8  -5420986.183 8
  21988802.572    21988804.665    -4032328.067 9  -7814902.498 8
  23253081.682    23253082.396    -4641777.529 6  -1437953.913 8
 89 11 15 10 25 59.0800000  0  4G 2G 6G11G 9
  22821565.770    22821566.895     6809809.993 8   2275546.896 8
  20661170.017    20661170.401     -835511.661 9  -5459317.801 7
  21970173.266    21970175.253    -4130222.748 9  -7891184.072 9
  23236561.555    23236563.198    -4728592.309 6  -1505601.781 8
 89 11 15 10 26 29.0800000  0  4G 2G 6G11G 9
  22836738.271    22836740.795     6889544.837 8   2337677.903 9
  20651842.166    20651842.766     -884531.000 9  -5497514.640 8
  21951603.514    21951604.606    -4227812.957 9  -7967228.375 9
  23220036.980    23220039.770    -4815424.071 7  -1573262.824 8
 89 11 15 10 26 59.0800000  0  4G 2G 6G11G 9
  22851918.760    22851921.104     6969317.162 9   2399838.126 9
  20642548.092    20642547.378     -933375.484 9  -5535575.209 8
  21933091.466    21933093.157    -4325095.510 9  -8043032.966 9
  23203512.151    23203512.062    -4902271.892 8  -1640936.440 7
 89 11 15 10 27 29.0800000  0  4G 2G 6G11G 9
  22867106.064    22867107.765     7049126.032 9   2462026.826 8
  20633285.845    20633286.486     -982043.445 9  -5573498.268 8
  21914638.085    21914639.948    -4422067.601 9  -8118595.632 9
  23186981.803    23186982.305    -4989134.559 8  -1708621.586 7
 89 11 15 10 27 59.0800000  0  4G 2G 6G11G 9
  22882300.228    22882302.766     7128971.048 8   2524243.688 8
  20624058.735    20624059.966    -1030533.260 9  -5611282.516 8
  21896244.086    21896246.364    -4518726.555 9  -8193914.280 9
  23170451.064    23170451.122    -5076011.363 9  -1776317.775 6
 89 11 15 10 28 29.0800000  0  4G 2G 6G11G 9
  22897500.633    22897501.944     7208851.320 9   2586488.057 8
  20614865.548    20614866.075    -1078843.190 9  -5648926.642 9
  21877909.865    21877912.552    -4615069.696 9  -8268986.806 9
  23153915.682    23153916.055    -5162901.202 9  -1844024.194 6
 89 11 15 10 28 59.0800000  0  4G 2G 6G11G 9
  22912707.796    22912709.569     7288766.298 8   2648759.496 8
  20605707.984    20605708.097    -1126971.500 9  -5686429.266 8
  21859636.969    21859639.972    -4711094.519 9  -8343811.290 8
  23137379.138    23137380.191    -5249803.012 9  -1911739.839 8
 89 11 15 10 29 29.0800000  0  4G 2G 6G11G 9
  22927921.271    22927922.950     7368714.999 9   2711057.201 8
  20596583.476    20596584.105    -1174916.348 9  -5723788.909 7
  21841425.294    21841427.279    -4806798.359 9  -8418385.705 9
  23120840.304    23120839.703    -5336716.203 9  -1979464.423 7
 89 11 15 10 29 59.0800000  0  4G 2G 6G11G 9
  22943141.375    22943143.308     7448696.404 8   2773380.339 7
  20587494.542    20587496.000    -1222675.655 8  -5761003.955 9
  21823276.070    21823277.041    -4902178.121 9  -8492707.594 9
  23104299.861    23104299.506    -5423639.031 9  -2047196.473 7
 89 11 15 10 30 29.0800000  0  4G 2G 6G11G 9
  22958368.175    22958369.947     7528710.816 9   2835729.197 8
  20578441.837    20578442.307    -1270247.918 9  -5798073.258 8
  21805187.293    21805189.082    -4997231.097 9  -8566774.841 9
  23087756.965    23087757.537    -5510570.588 9  -2114935.346 8
 89 11 15 10 30 59.0800000  0  4G 2G 6G11G 9
  22973600.786    22973601.215     7608757.037 8   2898102.853 7
  20569424.770    20569427.087    -1317631.320 9  -5834995.371 8
  21787162.586    21787164.516    -5091954.661 9  -8640585.377 8
  23071211.899    23071213.819    -5597510.011 9  -2182680.349 9
 89 11 15 10 31 29.0800000  0  4G 2G 6G11G 9
  22988838.534    22988838.867     7688833.923 8   2960500.416 8
  20560445.049    20560445.734    -1364824.281 9  -5871769.087 8
  21769200.125    21769202.328    -5186346.240 9  -8714137.267 9
  23054666.520    23054667.582    -5684456.344 9  -2250430.687 8
 89 11 15 10 31 59.0800000  0  4G 2G 6G11G 9
  23004082.199    23004085.812     7768941.219 9   3022921.570 8
  20551501.784    20551502.383    -1411824.737 9  -5908392.804 9
  21751301.072    21751303.545    -5280403.295 9  -8787428.462 8
  23038120.184    23038121.778    -5771408.034 9  -2318185.115 8
 89 11 15 10 32 29.0800000  0  4G 2G 6G11G 9
  23019332.261    23019333.477     7849077.934 8   3085365.696 8
  20542593.895    20542593.822    -1458631.969 9  -5944865.983 7
  21733466.770    21733469.366    -5374123.628 9  -8860457.280 8
  23021572.781    23021574.335    -5858365.382 9  -2385944.003 8
 89 11 15 10 32 59.0800000  0  4G 2G 6G11G 9
  23034586.028    23034587.869     7929242.684 9   3147831.704 8
  20533723.698    20533724.181    -1505244.654 9  -5981187.613 9
  21715697.026    21715697.744    -5467505.347 9  -8933222.233 8
  23005024.027    23005025.238    -5945327.434 9  -2453706.564 8
 89 11 15 10 33 29.0800000  0  4G 2G 6G11G 9
  23049846.913    23049849.531     8009436.051 8   3210319.995 8
  20524892.047    20524892.048    -1551659.318 9  -6017354.930 9
  21697992.668    21697995.282    -5560544.359 9  -9005720.165 9
  22988474.821    22988476.739    -6032291.950 8  -2521471.011 8
 89 11 15 10 33 59.0800000  0  4G 2G 6G11G 9
  23065112.400    23065115.158     8089657.423 9   3272830.116 8
  20516097.141    20516098.202    -1597874.194 9  -6053366.529 9
  21680353.845    21680355.871    -5653238.238 9  -9077949.130 9
  22971926.471    22971926.724    -6119257.793 9  -2589236.549 8
 89 11 15 10 34 29.0800000  0  4G 2G 6G11G 9
  23080383.017    23080385.653     8169906.510 8   3335361.845 8
  20507341.971    20507342.155    -1643887.441 9  -6089221.003 9
  21662780.761    21662782.583    -5745584.487 9  -9149907.230 9
  22955377.562    22955377.477    -6206223.575 9  -2657002.072 8
 89 11 15 10 34 59.0800000  0  4G 2G 6G11G 9
  23095659.448    23095661.867     8250182.560 9   3397914.571 9
  20498623.881    20498624.625    -1689697.376 9  -6124917.079 8
  21645274.665    21645276.951    -5837580.410 9  -9221592.365 8
  22938828.256    22938829.773    -6293188.236 8  -2724766.692 9
 89 11 15 10 35 29.0800000  0  4G 2G 6G11G 9
  23110940.317    23110943.145     8330484.690 8   3460487.616 9
  20489945.654    20489946.209    -1735302.111 9  -6160453.216 8
  21627835.045    21627837.296    -5929223.183 9  -9293002.331 8
  22922280.375    22922280.653    -6380150.940 8  -2792529.794 8
 89 11 15 10 35 59.0800000  0  4G 2G 6G11G 9
  23126226.192    23126228.758     8410812.447 8   3523080.623 8
  20481306.588    20481306.776    -1780699.658 9  -6195827.898 8
  21610463.225    21610465.224    -6020510.300 9  -9364135.154 8
  22905731.959    22905733.075    -6467109.993 8  -2860290.032 9
 89 11 15 10 36 29.0800000  0  4G 2G 6G11G 9
  23141517.892    23141519.772     8491165.316 8   3585693.202 8
  20472708.223    20472709.209    -1825888.307 9  -6231039.792 8
  21593160.462    21593162.703    -6111439.269 9  -9434988.880 8
  22889185.510    22889186.331    -6554064.760 8  -2928047.070 8
 89 11 15 10 36 59.0800000  0  4G 2G 6G11G 9
  23156812.906    23156814.941     8571543.154 8   3648325.274 9
  20464149.340    20464149.310    -1870866.054 9  -6266087.359 9
  21575925.941    21575927.415    -6202007.402 9  -9505561.452 8
  22872639.094    22872639.812    -6641013.524 8  -2995799.369 8
 89 11 15 10 37 29.0800000  0  4G 2G 6G11G 9
  23172112.380    23172115.207     8651944.386 9   3710975.442 9
  20455630.127    20455630.672    -1915631.164 9  -6300969.240 8
  21558760.341    21558763.086    -6292212.313 9  -9575850.994 8
  22856095.577    22856095.566    -6727955.358 9  -3063546.233 8
 89 11 15 10 37 59.0800000  0  4G 2G 6G11G 9
  23187417.488    23187418.224     8732368.699 9   3773643.628 8
  20447151.380    20447152.253    -1960182.058 9  -6335684.161 8
  21541664.440    21541666.981    -6382051.806 9  -9645855.770 9
  22839552.842    22839553.533    -6814889.265 8  -3131286.889 8
 89 11 15 10 38 29.0800000  0  4G 2G 6G11G 9
  23202726.012    23202728.531     8812816.256 9   3836329.984 8
  20438714.929    20438715.731    -2004516.418 9  -6370230.382 8
  21524637.665    21524642.317    -6471522.686 9  -9715573.325 8
  22823011.423    22823012.466    -6901813.264 9  -3199019.756 8
 89 11 15 10 38 59.0800000  0  4G 2G 6G11G 9
  23218038.795    23218041.069     8893286.213 9   3899033.801 8
  20430320.954    20430321.355    -2048632.465 9  -6404606.492 8
  21507683.793    21507686.213    -6560622.650 9  -9785001.854 9
  22806471.771    22806472.544    -6988726.746 9  -3266744.532 8
 89 11 15 10 39 29.0800000  0  4G 2G 6G11G 9
  23233355.562    23233357.804     8973778.048 9   3961754.675 8
  20421967.902    20421967.816    -2092528.384 9  -6438811.143 9
  21490798.537    21490801.204    -6649349.431 9  -9854139.622 9
  22789935.017    22789935.594    -7075628.379 9  -3334460.094 8
 89 11 15 10 39 59.0800000  0  4G 2G 6G11G 9
  23248677.727    23248678.364     9054291.068 8   4024492.076 8
  20413657.181    20413657.163    -2136201.943 9  -6472842.464 8
  21473986.754    21473987.772    -6737700.007 9  -9922984.212 8
  22773400.886    22773402.202    -7162516.703 9  -3402165.278 7
 89 11 15 10 40 29.0800000  0  4G 2G 6G11G 9
  23264002.434    23264004.055     9134824.702 9   4087245.480 8
  20405388.209    20405388.052    -2179651.728 9  -6506699.436 8
  21457246.436    21457248.308    -6825672.682 9  -9991534.348 8
  22756869.813    22756869.633    -7249390.579 9  -3469859.170 7
 89 11 15 10 40 59.0800000  0  4G 2G 6G11G 9
  23279331.032    23279331.256     9215378.217 9   4150014.429 8
  20397163.917    20397162.773    -2222875.804 9  -6540380.525 8
  21440578.587    21440580.364    -6913264.962 9 -10059788.085 8
  22740341.532    22740341.132    -7336249.031 9  -3537541.060 8
 89 11 15 10 41 29.0800000  0  4G 2G 6G11G 9
  23294664.395    23294665.555     9295951.807 9   4212799.048 7
  20388981.145    20388981.974    -2265871.930 9  -6573884.002 8
  21423982.962    21423985.607    -7000473.625 9 -10127742.878 9
  22723814.283    22723816.230    -7423090.243 9  -3605209.528 8
 89 11 15 10 41 59.0800000  0  4G 2G 6G11G 9
  23309999.355    23310000.780     9376544.230 9   4275598.325 8
  20380842.339    20380844.227    -2308638.359 9  -6607208.506 8
  21407460.459    21407463.782    -7087296.651 9 -10195397.137 9
  22707293.479    22707294.429    -7509913.236 9  -3672863.845 7
 89 11 15 10 42 29.0800000  0  4G 2G 6G11G 9
  23325339.911    23325341.622     9457155.176 9   4338412.014 9
  20372748.029    20372748.973    -2351172.965 9  -6640352.347 8
  21391012.915    21391015.122    -7173731.750 9 -10262749.115 8
  22690775.005    22690776.095    -7596716.425 9  -3740502.764 8
 89 11 15 10 42 59.0800000  0  4G 2G 6G11G 9
  23340683.783    23340683.621     9537784.477 9   4401240.053 8
  20364697.940    20364700.356    -2393474.084 9  -6673314.246 8
  21374638.900    21374640.643    -7259776.494 9 -10329796.923 8
  22674260.567    22674262.115    -7683498.669 9  -3808125.341 8
 89 11 15 10 43 29.0800000  0  4G 2G 6G11G 9
  23356030.186    23356030.641     9618431.626 9   4464081.928 7
  20356693.718    20356694.834    -2435539.421 9  -6706092.409 8
  21358340.556    21358342.050    -7345428.431 9 -10396538.691 7
  22657750.843    22657752.167    -7770258.359 9  -3875730.303 8
 89 11 15 10 43 59.0800000  0  4G 2G 6G11G 9
  23371380.347    23371380.988     9699095.962 8   4526937.250 8
  20348734.791    20348735.061    -2477367.059 8  -6738685.373 9
  21342116.761    21342119.014    -7430684.765 9 -10462972.217 8
  22641246.514    22641246.754    -7856994.093 9  -3943316.618 9
 89 11 15 10 44 29.0800000  0  4G 2G 6G11G 9
  23386732.371    23386733.490     9779776.596 9   4589805.262 8
  20340820.687    20340821.590    -2518955.417 9  -6771091.883 8
  21325968.072    21325971.724    -7515543.843 9 -10529096.190 8
  22624746.261    22624746.385    -7943704.871 8  -4010883.497 9
 89 11 15 10 44 59.0800000  0  4G 2G 6G11G 9
  23402088.108    23402090.580     9860473.404 8   4652685.820 8
  20332953.171    20332954.203    -2560302.332 9  -6803310.267 8
  21309895.976    21309898.387    -7600003.125 9 -10594908.605 8
  22608249.749    22608250.698    -8030389.093 8  -4078429.663 7
 89 11 15 10 45 29.0800000  0  4G 2G 6G11G 9
  23417447.531    23417449.269     9941186.210 8   4715578.884 8
  20325131.251    20325131.470    -2601405.782 9  -6835338.924 8
  21293900.447    21293902.629    -7684059.889 9 -10660407.390 8
  22591759.935    22591761.127    -8117045.149 8  -4145953.760 8
 89 11 15 10 45 59.0800000  0  4G 2G 6G11G 9
  23432810.651    23432812.638    10021914.443 8   4778483.953 8
  20317356.137    20317356.339    -2642263.710 9  -6867176.256 8
  21277982.236    21277983.690    -7767711.622 9 -10725590.549 9
  22575275.420    22575275.915    -8203671.854 8  -4213455.026 9
 89 11 15 10 46 29.0800000  0  4G 2G 6G11G 9
  23448174.145    23448176.109    10102657.583 9   4841400.650 7
  20309628.071    20309628.757    -2682874.124 9  -6898820.738 8
  21262141.305    21262143.580    -7850956.153 9 -10790456.414 8
  22558797.053    22558798.203    -8290267.721 9  -4280932.272 9
 89 11 15 10 46 59.0800000  0  4G 2G 6G11G 9
  23463542.780    23463544.117    10183415.119 9   4904328.586 8
  20301948.175    20301947.520    -2723235.253 9  -6930270.954 8
  21246378.229    21246381.124    -7933791.314 9 -10855003.281 8
  22542324.816    22542324.826    -8376831.334 9  -4348384.361 8
 89 11 15 10 47 29.0800000  0  4G 2G 6G11G 9
  23478913.178    23478914.458    10264186.540 9   4967267.305 8
  20294314.912    20294315.642    -2763345.028 9  -6961525.321 8
  21230693.881    21230695.070    -8016214.674 9 -10919229.233 8
  22525857.696    22525859.335    -8463361.346 9  -4415810.313 9
 89 11 15 10 47 59.0800000  0  4G 2G 6G11G 9
  23494285.546    23494287.688    10344971.841 9   5030216.864 8
  20286730.554    20286730.668    -2803201.403 9  -6992582.226 8
  21215087.860    21215090.379    -8098223.978 9 -10983132.560 8
  22509398.113    22509399.802    -8549856.136 9  -4483208.865 9
 89 11 15 10 48 29.0800000  0  4G 2G 6G11G 9
  23509660.640    23509663.284    10425770.035 9   5093176.458 9
  20279195.919    20279195.141    -2842802.494 9  -7023440.220 9
  21199561.697    21199564.143    -8179816.993 9 -11046711.529 8
  22492947.282    22492946.903    -8636314.288 9  -4550578.849 8
 89 11 15 10 48 59.0800000  0  4G 2G 6G11G 9
  23525039.658    23525041.179    10506580.832 9   5156145.880 8
  20271708.905    20271709.464    -2882146.158 9  -7054097.608 9
  21184115.165    21184117.144    -8260991.805 9 -11109964.628 9
  22476500.778    22476502.040    -8722734.163 9  -4617919.003 8
 89 11 15 10 49 29.0800000  0  4G 2G 6G11G 9
  23540419.472    23540421.274    10587404.467 9   5219125.277 9
  20264270.736    20264271.995    -2921230.340 9  -7084552.814 8
  21168746.865    21168749.267    -8341745.807 9 -11172889.840 9
  22460063.935    22460064.218    -8809114.489 9  -4685228.370 8
 89 11 15 10 49 59.0800000  0  4G 2G 6G11G 9
  23555802.292    23555804.571    10668240.062 8   5282114.021 9
  20256882.991    20256883.130    -2960053.106 9  -7114804.309 8
  21153460.312    21153463.463    -8422076.812 9 -11235485.402 8
  22443634.300    22443635.174    -8895453.616 9  -4752505.566 9
 89 11 15 10 50 29.0800000  0  4G 2G 6G11G 9
  23571187.307    23571189.281    10749087.764 9   5345112.153 9
  20249545.294    20249546.505    -2998612.312 9  -7144850.453 8
  21138254.622    21138257.308    -8501982.476 9 -11297749.569 9
  22427211.881    22427213.193    -8981749.739 9  -4819749.302 8
 89 11 15 10 50 59.0800000  0  4G 2G 6G11G 9
  23586573.346    23586576.284    10829946.053 8   5408118.584 9
  20242258.138    20242259.139    -3036906.310 9  -7174689.900 8
  21123131.271    21123132.991    -8581460.972 9 -11359680.870 9
  22410798.887    22410800.621    -9068001.831 9  -4886958.654 7
 89 11 15 10 51 29.0800000  0  4G 2G 6G11G 9
  23601962.967    23601964.443    10910815.052 8   5471133.367 9
  20235022.059    20235023.037    -3074933.011 9  -7204321.093 9
  21108088.897    21108090.745    -8660510.072 9 -11421277.584 8
  22394394.082    22394393.330    -9154208.174 9  -4954132.363 7
 89 11 15 10 51 59.0800000  0  4G 2G 6G11G 9
  23617352.849    23617354.790    10991694.665 9   5534156.397 9
  20227835.906    20227837.597    -3112690.442 9  -7233742.494 8
  21093128.088    21093130.148    -8739127.255 9 -11482537.755 8
  22377998.016    22377998.584    -9240367.435 9  -5021269.440 7
 89 11 15 10 52 29.0800000  0  4G 2G 6G11G 9
  23632746.411    23632748.308    11072583.945 9   5597186.979 9
  20220702.397    20220703.844    -3150176.478 9  -7262952.454 8
  21078250.413    21078252.812    -8817310.452 9 -11543459.742 9
  22361612.969    22361611.976    -9326477.637 9  -5088368.293 7
 89 11 15 10 52 59.0800000  0  4G 2G 6G11G 9
  23648140.521    23648142.760    11153483.366 9   5660225.455 9
  20213622.358    20213623.403    -3187388.867 9  -7291949.150 8
  21063455.307    21063457.685    -8895057.621 9 -11604041.943 9
  22345235.215    22345236.040    -9412537.489 9  -5155427.905 7
 89 11 15 10 53 29.0800000  0  4G 2G 6G11G 9
  23663536.336    23663539.143    11234391.671 9   5723270.878 9
  20206593.123    20206593.858    -3224325.734 9  -7320731.141 9
  21048743.956    21048747.045    -8972366.435 9 -11664282.490 8
  22328869.619    22328869.421    -9498545.258 9  -5222446.963 8
 89 11 15 10 53 59.0800000  0  4G 2G 6G11G 9
  23678935.270    23678938.075    11315309.447 9   5786323.660 8
  20199617.523    20199617.724    -3260984.834 9  -7349296.706 7
  21034116.761    21034117.981    -9049234.809 9 -11724179.824 9
  22312512.094    22312510.968    -9584499.103 9  -5289424.010 7
 89 11 15 10 54 29.0800000  0  4G 2G 6G11G 9
  23694335.307    23694336.944    11396236.608 9   5849383.752 7
  20192694.601    20192694.625    -3297363.427 9  -7377643.659 8
  21019572.594    21019574.802    -9125660.004 9 -11783731.857 8
  22296168.042    22296168.052    -9670396.701 9  -5356357.197 7
 89 11 15 10 54 59.0800000  0  4G 2G 6G11G 9
  23709737.317    23709739.076    11477172.196 9   5912450.451 8
  20185826.040    20185826.334    -3333460.104 9  -7405770.934 8
  21005114.449    21005115.823    -9201640.727 9 -11842937.573 9
  22279831.953    22279831.432    -9756237.106 9  -5423245.788 8
 89 11 15 10 55 29.0800000  0  4G 2G 6G11G 9
  23725139.797    23725140.941    11558115.439 9   5975523.097 8
  20179011.388    20179010.506    -3369273.370 8  -7433677.373 7
  20990740.077    20990742.426    -9277175.038 9 -11901795.452 9
  22263507.565    22263508.974    -9842019.287 8  -5490089.067 9
 89 11 15 10 55 59.0800000  0  4G 2G 6G11G 9
  23740544.130    23740546.420    11639066.348 8   6038601.704 7
  20172249.721    20172251.496    -3404800.742 9  -7461360.979 8
  20976451.956    20976455.166    -9352260.916 9 -11960303.921 7
  22247194.551    22247196.800    -9927741.182 9  -5556885.306 8
 89 11 15 10 56 29.0800000  0  4G 2G 6G11G 9
  23755949.842    23755952.153    11720023.976 7   6101685.535 8
  20165542.865    20165544.171    -3440041.229 8  -7488821.052 9
  20962248.132    20962250.398    -9426897.217 9 -12018462.067 8
  22230895.778    22230896.173   -10013401.987 9  -5623633.973 8
 89 11 15 10 56 59.0800000  0  4G 2G 6G11G 9
  23771357.015    23771358.629    11800988.078 6   6164774.406 8
  20158893.328    20158894.487    -3474992.307 9  -7516055.606 8
  20948133.001    20948134.642    -9501081.370 9 -12076267.882 8
  22214606.378    22214606.767   -10098999.812 9  -5690333.620 9
 89 11 15 10 57 29.0800000  0  4G 2G 6G11G 9
  23786762.683    23786765.925    11881958.955 7   6227868.548 7
  20152297.967    20152298.289    -3509651.601 9  -7543062.813 8
  20934101.804    20934104.924    -9574811.109 9 -12133719.639 8
  22198330.152    22198330.904   -10184532.115 9  -5756982.170 8
 89 11 15 10 57 59.0800000  0  4G 2G 6G11G 9
  23802173.942    23802175.604    11962935.895 8   6290967.406 8
  20145757.954    20145758.345    -3544016.845 9  -7569840.907 8
  20920158.295    20920161.709    -9648084.228 9 -12190815.604 8
  22182067.132    22182068.213   -10269997.430 9  -5823578.528 7
 89 11 15 10 58 29.0800000  0  4G 2G 6G11G 9
  23817585.334    23817586.779    12043918.874 8   6354070.978 8
  20139274.655    20139274.418    -3578086.166 9  -7596388.421 8
  20906301.554    20906304.526    -9720898.799 9 -12247554.240 8
  22165814.987    22165816.241   -10355394.233 9  -5890121.547 9
 89 11 15 10 58 59.0800000  0  4G 2G 6G11G 9
  23832996.089    23832999.507    12124907.767 8   6417179.179 7
  20132848.410    20132848.783    -3611857.392 9  -7622703.651 8
  20892535.124    20892537.218    -9793253.054 9 -12303934.209 8
  22149578.501    22149579.519   -10440720.402 8  -5956609.476 8
 89 11 15 10 59 29.0800000  0  4G 2G 6G11G 9
  23848409.120    23848411.415    12205902.020 9   6480291.542 8
  20126478.845    20126480.867    -3645328.518 9  -7648785.033 8
  20878853.549    20878855.783    -9865145.104 8 -12359954.015 8
  22133355.644    22133356.948   -10525974.315 9  -6023041.105 8
 89 11 15 10 59 59.0800000  0  4G 2G 6G11G 9
  23863823.920    23863826.148    12286901.554 9   6543408.032 8
  20120167.512    20120167.676    -3678497.526 9  -7674631.011 8
  20865261.596    20865262.986    -9936572.977 9 -12415612.133 9
  22117146.563    22117147.771   -10611154.265 9  -6089415.121 9
 89 11 15 11  0 29.0800000  0  4G 2G 6G11G 9
  23879237.914    23879239.691    12367905.566 9   6606528.027 8
  20113913.190    20113914.310    -3711362.062 9  -7700239.732 8
  20851757.544    20851760.667   -10007534.484 9 -12470906.826 7
  22100951.398    22100951.987   -10696258.391 8  -6155730.058 8
 89 11 15 11  0 59.0800000  0  4G 2G 6G11G 9
  23894652.644    23894655.840    12448914.488 9   6669651.837 8
  20107718.201    20107717.795    -3743920.477 9  -7725609.918 8
  20838343.795    20838345.500   -10078028.036 9 -12525836.881 8
  22084771.487    22084772.699   -10781285.210 9  -6221984.744 9
 89 11 15 11  1 29.0800000  0  4G 2G 6G11G 9
  23910069.345    23910071.544    12529927.846 9   6732779.108 8
  20101580.484    20101582.229    -3776170.513 8  -7750739.797 8
  20825019.209    20825020.278   -10148051.743 9 -12580400.828 7
  22068606.410    22068606.876   -10866232.658 9  -6288177.530 8
 89 11 15 11  1 59.0800000  0  4G 2G 6G11G 9
  23925487.047    23925488.598    12610945.073 9   6795909.389 8
  20095502.268    20095502.917    -3808110.212 9  -7775627.861 8
  20811782.715    20811785.141   -10217604.002 9 -12634597.389 8
  22052457.206    22052457.870   -10951098.923 8  -6354307.056 9
 89 11 15 11  2 29.0800000  0  4G 2G 6G11G 9
  23940904.638    23940906.731    12691966.274 9   6859042.786 8
  20089484.914    20089485.025    -3839737.424 9  -7800272.419 8
  20798637.791    20798639.922   -10286682.609 8 -12688424.799 8
  22036323.184    22036323.331   -11035882.345 8  -6420372.052 8
 89 11 15 11  2 59.0800000  0  4G 2G 6G11G 9
  23956322.854    23956325.365    12772990.632 9   6922178.620 8
  20083525.867    20083525.748    -3871050.199 9  -7824671.979 9
  20785582.573    20785585.049   -10355285.895 9 -12741881.841 9
  22020205.917    22020207.017   -11120581.206 9  -6486371.169 8
 89 11 15 11  3 29.0800000  0  4G 2G 6G11G 9
  23971741.454    23971743.847    12854018.318 9   6985317.039 8
  20077627.094    20077627.012    -3902046.545 9  -7848824.988 8
  20772618.642    20772621.477   -10423412.487 9 -12794967.483 8
  22004104.916    22004105.036   -11205193.583 8  -6552302.856 8
 89 11 15 11  3 59.0800000  0  4G 2G 6G11G 9
  23987161.759    23987163.704    12935048.785 9   7048457.654 8
  20071788.850    20071791.192    -3932724.271 9  -7872729.696 7
  20759745.926    20759746.438   -10491060.242 9 -12847680.037 7
  21988020.171    21988019.820   -11289717.589 9  -6618165.662 8
 89 11 15 11  4 29.0800000  0  4G 2G 6G11G 9
  24002582.137    24002584.358    13016081.971 9   7111600.388 8
  20066013.055    20066014.161    -3963081.279 9  -7896384.496 8
  20746962.838    20746965.665   -10558227.446 9 -12900018.137 8
  21971951.848    21971953.722   -11374151.556 8  -6683958.333 8
 89 11 15 11  4 59.0800000  0  4G 2G 6G11G 9
  24018003.023    24018003.753    13097118.198 9   7174745.460 7
  20060296.427    20060297.968    -3993115.487 9  -7919787.764 8
  20734274.619    20734276.267   -10624912.356 9 -12951980.393 8
  21955902.216    21955903.399   -11458493.342 9  -6749679.207 7
 89 11 15 11  5 29.0800000  0  4G 2G 6G11G 9
  24033423.974    24033425.243    13178157.380 8   7237892.851 7
  20054644.005    20054643.455    -4022824.224 9  -7942937.428 7
  20721676.951    20721679.476   -10691112.588 9 -13003564.960 7
  21939870.904    21939871.214   -11542740.587 9  -6815326.383 8
 89 11 15 11  5 59.0800000  0  4G 2G 6G11G 9
  24048846.613    24048846.766    13259198.987 7   7301042.110 8
  20049052.383    20049052.750    -4052205.340 9  -7965831.796 8
  20709171.898    20709174.374   -10756826.411 9 -13054770.510 8
  21923857.224    21923858.104   -11626891.009 9  -6880898.124 8
 89 11 15 11  6 29.0800000  0  4G 2G 6G11G 9
  24064267.678    24064270.754    13340243.005 8   7364193.259 8
  20043524.088    20043525.048    -4081257.552 8  -7988469.893 9
  20696759.707    20696761.357   -10822053.188 9 -13105596.536 8
  21907863.637    21907863.899   -11710943.957 9  -6946393.918 9
 89 11 15 11  6 59.0800000  0  4G 2G 6G11G 9
  24079688.988    24079692.543    13421288.794 8   7427345.814 8
  20038058.124    20038059.053    -4109978.751 9  -8010850.057 9
  20684440.804    20684442.812   -10886791.028 9 -13156041.614 8
  21891887.810    21891887.905   -11794897.067 9  -7011811.915 9
 89 11 15 11  7 29.0800000  0  4G 2G 6G11G 9
  24095112.007    24095115.657    13502335.113 8   7490498.757 8
  20032656.355    20032656.298    -4138368.027 9  -8032971.589 8
  20672214.930    20672216.842   -10951039.259 9 -13206105.172 8
  21875931.259    21875931.448   -11878749.828 8  -7077151.706 8
 89 11 15 11  7 59.0800000  0  4G 2G 6G11G 9
  24110536.099    24110538.002    13583382.485 9   7553652.569 8
  20027317.495    20027317.512    -4166422.267 9  -8054832.035 7
  20660082.213    20660084.599   -11014795.196 9 -13255785.109 8
  21859994.637    21859994.634   -11962499.048 9  -7142410.854 8
 89 11 15 11  8 29.0800000  0  4G 2G 6G11G 9
  24125958.718    24125961.155    13664430.900 9   7616807.149 8
  20022043.468    20022044.834    -4194139.231 8  -8076429.670 8
  20648043.652    20648045.743   -11078057.670 9 -13305080.543 8
  21844077.073    21844078.381   -12046142.698 9  -7207587.703 9
 89 11 15 11  8 59.0800000  0  4G 2G 6G11G 9
  24141381.728    24141384.199    13745480.058 9   7679962.320 9
  20016833.706    20016834.888    -4221516.957 9  -8097762.953 7
  20636098.561    20636101.933   -11140824.819 8 -13353990.009 9
  21828180.491    21828180.669   -12129678.922 9  -7272680.863 9
 89 11 15 11  9 29.0800000  0  4G 2G 6G11G 9
  24156805.817    24156807.137    13826531.353 9   7743119.169 9
  20011688.394    20011688.160    -4248552.224 8  -8118829.394 8
  20624250.013    20624252.297   -11203093.771 8 -13402511.268 8
  21812305.220    21812305.140   -12213104.533 9  -7337687.825 8
 89 11 15 11  9 59.0800000  0  4G 2G 6G11G 9
  24172228.140    24172232.045    13907583.553 8   7806276.706 9
  20006610.726    20006610.414    -4275243.609 8  -8139627.871 8
  20612495.034    20612498.422   -11264863.786 9 -13450643.714 8
  21796451.777    21796451.168   -12296418.138 9  -7402607.493 8
 89 11 15 11 10 29.0800000  0  4G 2G 6G11G 9
  24187652.677    24187654.506    13988635.757 9   7869434.266 9
  20001595.794    20001596.728    -4301589.640 8  -8160157.253 8
  20600837.064    20600838.244   -11326133.987 9 -13498386.664 8
  21780618.311    21780619.680   -12379618.267 9  -7467438.690 8
 89 11 15 11 10 59.0800000  0  4G 2G 6G11G 9
  24203076.425    24203079.983    14069688.190 8   7932591.985 9
  19996648.933    19996649.784    -4327588.169 9  -8180415.845 8
  20589271.935    20589274.017   -11386902.563 9 -13545738.732 8
  21764807.969    21764808.148   -12462702.896 9  -7532179.916 8
 89 11 15 11 11 29.0800000  0  4G 2G 6G11G 9
  24218498.807    24218502.288    14150740.791 8   7995749.843 9
  19991767.931    19991769.053    -4353237.193 9  -8200402.081 8
  20577804.033    20577806.840   -11447168.209 9 -13592698.926 7
  21749020.239    21749020.404   -12545670.383 9  -7596829.900 8
 89 11 15 11 11 59.0800000  0  4G 2G 6G11G 9
  24233923.300    24233926.600    14231792.894 9   8058907.295 9
  19986954.140    19986955.105    -4378534.783 9  -8220114.478 8
  20566432.088    20566434.050   -11506929.511 9 -13639266.113 8
  21733254.520    21733255.827   -12628518.411 9  -7661386.810 8
 89 11 15 11 12 29.0800000  0  4G 2G 6G11G 9
  24249345.757    24249351.408    14312844.781 7   8122064.578 9
  19982207.020    19982208.295    -4403478.839 9  -8239551.402 8
  20555154.804    20555158.167   -11566185.116 8 -13685439.283 8
  21717512.415    21717513.333   -12711244.788 9  -7725848.857 8
 89 11 15 11 12 59.0800000  0  4G 2G 6G11G 9
  24264774.370    24264773.817    14393896.068 7   8185221.394 8
  19977528.614    19977528.824    -4428067.496 8  -8258711.387 8
  20543975.749    20543977.830   -11624933.647 9 -13731217.296 8
  21701792.539    21701793.556   -12793847.894 9  -7790214.908 8
 89 11 15 11 13 29.0800000  0  4G 2G 6G11G 9
  24280195.965    24280197.414    14474947.076 5   8248377.960 9
  19972917.409    19972917.314    -4452298.345 9  -8277592.563 9
  20532892.812    20532895.295   -11683173.645 9 -13776599.056 8
  21686097.642    21686099.309   -12876325.438 9  -7854483.106 8
 89 11 15 11 13 59.0800000  0  4G 2G 6G11G 9
  24295617.025    24295619.768    14555997.294 5   8311533.894 7
  19968374.576    19968375.999    -4476169.477 8  -8296193.451 8
  20521907.331    20521909.362   -11740903.460 9 -13821583.265 8
  21670428.143    21670428.260   -12958675.067 9  -7918651.641 8
 89 11 15 11 14 29.0800000  0  4G 2G 6G11G 9
  24311042.611    24311043.762    14637046.455 6   8374689.025 9
  19963900.943    19963901.917    -4499678.920 8  -8314512.500 8
  20511019.633    20511021.941   -11798122.107 9 -13866169.177 8
  21654781.359    21654782.270   -13040894.865 9  -7982719.000 8
 89 11 15 11 14 59.0800000  0  4G 2G 6G11G 9
  24326464.079    24326465.257    14718094.884 7   8437843.626 7
  19959496.475    19959498.239    -4522824.318 8  -8332547.870 8
  20500229.013    20500230.763   -11854828.005 9 -13910355.562 9
  21639160.687    21639161.207   -13122982.580 9  -8046683.464 8
 89 11 15 11 15 29.0800000  0  4G 2G 6G11G 9
  24341884.135    24341890.748    14799141.923 8   8500997.136 8
  19955162.568    19955162.147    -4545604.057 8  -8350298.312 9
  20489535.934    20489538.686   -11911020.003 9 -13954141.499 8
  21623565.942    21623566.920   -13204936.370 9  -8110543.554 8
 89 11 15 11 15 59.0800000  0  4G 2G 6G11G 9
  24357309.133    24357313.163    14880187.683 9   8564149.675 7
  19950896.563    19950896.721    -4568015.991 9  -8367762.172 8
  20478941.716    20478943.120   -11966696.632 9 -13997525.841 8
  21607997.002    21607997.434   -13286754.070 9  -8174297.611 8
 89 11 15 11 16 29.0800000  0  4G 2G 6G11G 9
  24372731.490    24372733.355    14961232.154 9   8627301.224 6
  19946701.943    19946703.784    -4590058.029 8  -8384937.779 7
  20468444.306    20468446.062   -12021856.618 9 -14040507.610 8
  21592453.851    21592454.044   -13368433.410 9  -8237943.836 8
 89 11 15 11 16 59.0800000  0  4G 2G 6G11G 9
  24388151.473    24388153.754    15042274.910 9   8690451.449 4
  19942579.714    19942579.541    -4611728.633 8  -8401823.982 7
  20458046.846    20458047.718   -12076499.298 9 -14083086.266 8
  21576936.161    21576937.431   -13449972.678 9  -8301480.894 8
 89 11 15 11 17 29.0800000  0  4G 2G 6G11G 9
  24403576.069    24403579.405    15123314.112 9   8753598.902 6
  19938525.741    19938526.767    -4633027.130 8  -8418420.244 7
  20447746.563    20447748.445   -12130625.133 9 -14125262.202 9
  21561446.954    21561447.854   -13531371.266 9  -8364908.326 9
